CW2931 Weather Reports


Display with metric or nautical units.
time (UTC)temp
F
wind
direction
speed
MPH
gust
MPH
rain 1hr
in
rain 24hr
in
rain mn
in
humidity
%
barometer
mb
20260507194605 60 315 0.0 0.0 0.00 0.00 0.00 35 1011.1
20260507193605 59 245 0.0 0.0 0.00 0.00 0.00 37 1011.0
20260507192604 58 304 0.0 0.0 0.00 0.00 0.00 36 1011.1
20260507192105 59 289 0.0 0.0 0.00 0.00 0.00 36 1011.1
20260507191605 59 313 0.0 0.0 0.00 0.00 0.00 36 1011.1
20260507191105 59 276 0.0 0.0 0.00 0.00 0.00 37 1011.1
20260507190605 59 261 0.0 0.0 0.00 0.00 0.00 36 1011.2
20260507190105 59 267 0.0 0.0 0.00 0.00 0.00 36 1011.1
20260507185605 59 251 0.0 0.0 0.00 0.00 0.00 37 1011.2
20260507184605 59 275 0.0 0.0 0.00 0.00 0.00 36 1011.2
20260507184105 59 324 0.0 0.0 0.00 0.00 0.00 37 1011.1
20260507183604 59 253 0.0 0.0 0.00 0.00 0.00 38 1011.3
20260507182605 59 249 0.0 0.0 0.00 0.00 0.00 39 1011.3
20260507182105 58 264 0.0 0.0 0.00 0.00 0.00 41 1011.3
20260507181605 58 348 0.0 0.0 0.00 0.00 0.00 40 1011.3
20260507181104 58 274 0.0 0.0 0.00 0.00 0.00 40 1011.4
20260507180605 58 0 0.0 0.0 0.00 0.00 0.00 41 1011.3
20260507175105 59 303 0.0 0.0 0.00 0.00 0.00 41 1011.5
20260507174604 59 250 0.0 0.0 0.00 0.00 0.00 40 1011.6
20260507174105 58 336 0.0 0.0 0.00 0.00 0.00 41 1011.5
20260507173605 58 235 0.0 0.0 0.00 0.00 0.00 42 1011.5
20260507173105 57 298 0.0 0.0 0.00 0.00 0.00 41 1011.6
20260507172605 57 242 0.0 0.0 0.00 0.00 0.00 40 1011.6
20260507172105 58 287 0.0 0.0 0.00 0.00 0.00 39 1011.6
20260507171605 58 298 0.0 0.0 0.00 0.00 0.00 39 1011.6
20260507171105 59 304 0.0 0.0 0.00 0.00 0.00 42 1011.6
20260507170105 59 271 0.0 0.0 0.00 0.00 0.00 42 1011.7
20260507165605 58 264 0.0 0.0 0.00 0.00 0.00 42 1011.7
20260507165105 58 247 0.0 0.0 0.00 0.00 0.00 42 1011.7
20260507164605 57 263 0.0 0.0 0.00 0.00 0.00 41 1011.8
20260507164104 57 278 0.0 0.0 0.00 0.00 0.00 42 1012.0
20260507163605 57 241 0.0 0.0 0.00 0.00 0.00 43 1011.9
20260507163105 57 285 0.0 0.0 0.00 0.00 0.00 42 1011.9
20260507162605 57 318 0.0 0.0 0.00 0.00 0.00 42 1011.9
20260507162105 57 263 0.0 0.0 0.00 0.00 0.00 43 1011.9
20260507161604 58 266 0.0 0.0 0.00 0.00 0.00 42 1012.0
20260507161105 58 267 0.0 0.0 0.00 0.00 0.00 42 1011.8
20260507160605 58 250 0.0 0.0 0.00 0.00 0.00 42 1011.9
20260507160105 58 274 0.0 0.0 0.00 0.00 0.00 44 1012.0
20260507155604 58 267 0.0 0.0 0.00 0.00 0.00 42 1012.0
20260507155105 58 38 0.0 0.0 0.00 0.00 0.00 43 1011.8
20260507154605 57 256 0.0 0.0 0.00 0.00 0.00 43 1011.9
20260507153605 57 255 0.0 0.0 0.00 0.00 0.00 44 1011.9
20260507153105 57 264 0.0 0.0 0.00 0.00 0.00 42 1012.0
20260507152605 57 330 0.0 0.0 0.00 0.00 0.00 43 1011.8
20260507152105 57 340 0.0 0.0 0.00 0.00 0.00 43 1011.8
20260507151605 57 297 0.0 0.0 0.00 0.00 0.00 42 1011.7
20260507151105 57 275 0.0 0.0 0.00 0.00 0.00 43 1011.8
20260507150605 57 314 0.0 0.0 0.00 0.00 0.00 44 1011.9
20260507150105 57 345 0.0 0.0 0.00 0.00 0.00 44 1011.9
20260507145604 56 331 0.0 0.0 0.00 0.00 0.00 45 1012.1
20260507145105 56 256 0.0 0.0 0.00 0.00 0.00 44 1012.1
20260507144605 56 265 0.0 0.0 0.00 0.00 0.00 44 1012.0
20260507144105 56 269 0.0 0.0 0.00 0.00 0.00 44 1012.0
20260507143605 56 216 0.0 0.0 0.00 0.00 0.00 45 1012.0
20260507143104 56 299 0.0 0.0 0.00 0.00 0.00 47 1012.1
20260507142605 55 261 0.0 0.0 0.00 0.00 0.00 47 1012.1
20260507142105 55 273 0.0 0.0 0.00 0.00 0.00 45 1012.1
20260507141605 55 298 0.0 0.0 0.00 0.00 0.00 44 1012.1
20260507140604 55 312 0.0 0.0 0.00 0.00 0.00 46 1012.2
20260507140105 54 305 0.0 0.0 0.00 0.00 0.00 48 1012.3
20260507135605 54 240 0.0 0.0 0.00 0.00 0.00 47 1012.4
20260507134605 54 258 0.0 0.0 0.00 0.00 0.00 48 1012.5
20260507133605 54 246 0.0 0.0 0.00 0.00 0.00 49 1012.5
20260507133105 54 252 0.0 0.0 0.00 0.00 0.00 50 1012.5
20260507132605 54 245 0.0 0.0 0.00 0.00 0.00 52 1012.4
20260507132104 53 256 0.0 0.0 0.00 0.00 0.00 53 1012.5
20260507131605 53 0 0.0 0.0 0.00 0.00 0.00 54 1012.6
20260507131105 52 325 0.0 0.0 0.00 0.00 0.00 57 1012.6
20260507130606 52 328 0.0 0.0 0.00 0.00 0.00 57 1012.6
20260507130104 51 328 0.0 0.0 0.00 0.00 0.00 58 1012.6
20260507125604 51 224 0.0 0.0 0.00 0.00 0.00 58 1012.5
20260507125105 50 319 0.0 0.0 0.00 0.00 0.00 60 1012.6
20260507124605 50 346 0.0 0.0 0.00 0.00 0.00 60 1012.6
20260507124105 49 273 0.0 0.0 0.00 0.00 0.00 62 1012.6
20260507123106 48 264 0.0 0.0 0.00 0.00 0.00 66 1012.6
20260507122604 48 270 0.0 0.0 0.00 0.00 0.00 68 1012.6
20260507122105 47 267 0.0 0.0 0.00 0.00 0.00 72 1012.6
20260507121605 46 283 0.0 0.0 0.00 0.00 0.00 74 1012.6
20260507120605 44 262 0.0 0.0 0.00 0.00 0.00 77 1012.6
20260507120105 44 256 0.0 0.0 0.00 0.00 0.00 78 1012.6
20260507115105 43 230 0.0 0.0 0.00 0.00 0.00 77 1012.5
20260507114604 42 255 0.0 0.0 0.00 0.00 0.00 77 1012.5
20260507114105 42 284 0.0 0.0 0.00 0.00 0.00 76 1012.4
20260507113605 42 276 0.0 0.0 0.00 0.00 0.00 76 1012.4
20260507113105 42 281 0.0 0.0 0.00 0.00 0.00 75 1012.2
20260507112605 42 283 0.0 0.0 0.00 0.00 0.00 75 1012.2
20260507112105 41 284 0.0 0.0 0.00 0.00 0.00 74 1012.2
20260507111605 41 284 0.0 0.0 0.00 0.00 0.00 74 1012.2
20260507111105 41 281 0.0 0.0 0.00 0.00 0.00 74 1012.2
20260507110604 41 282 0.0 0.0 0.00 0.00 0.00 74 1012.1
20260507110104 42 281 0.0 0.0 0.00 0.00 0.00 73 1012.1
20260507105605 42 282 0.0 0.0 0.00 0.00 0.00 73 1012.1
20260507105105 42 283 0.0 0.0 0.00 0.00 0.00 72 1011.9
20260507104604 42 284 0.0 0.0 0.00 0.00 0.00 72 1011.9
20260507104105 42 284 0.0 0.0 0.00 0.00 0.00 72 1011.9
20260507103105 42 284 0.0 0.0 0.00 0.00 0.00 72 1011.9
20260507102604 42 284 0.0 0.0 0.00 0.00 0.00 71 1011.8
20260507102104 43 284 0.0 0.0 0.00 0.00 0.00 71 1011.8
20260507101605 43 284 0.0 0.0 0.00 0.00 0.00 71 1011.7
20260507100104 43 284 0.0 0.0 0.00 0.00 0.00 71 1011.6
20260507095605 44 283 0.0 0.0 0.00 0.00 0.00 71 1011.6
20260507095105 44 282 0.0 0.0 0.00 0.00 0.00 71 1011.6
20260507094605 44 282 0.0 0.0 0.00 0.00 0.00 71 1011.6
20260507094105 44 284 0.0 0.0 0.00 0.00 0.00 71 1011.6
20260507093605 44 284 0.0 0.0 0.00 0.00 0.00 71 1011.6
20260507093105 44 282 0.0 0.0 0.00 0.00 0.00 71 1011.7
20260507092604 45 282 0.0 0.0 0.00 0.00 0.00 71 1011.7
20260507092105 45 282 0.0 0.0 0.00 0.00 0.00 71 1011.7
20260507091105 45 281 0.0 0.0 0.00 0.00 0.00 72 1011.7
20260507090604 45 282 0.0 0.0 0.00 0.00 0.00 72 1011.8
20260507090105 45 282 0.0 0.0 0.00 0.00 0.00 72 1011.8
20260507085606 45 283 0.0 0.0 0.00 0.00 0.00 72 1012.0
20260507085105 45 283 0.0 0.0 0.00 0.00 0.00 72 1011.9
20260507084605 45 282 0.0 0.0 0.00 0.00 0.00 72 1012.0
20260507084104 45 282 0.0 0.0 0.00 0.00 0.00 72 1012.0
20260507083605 45 282 0.0 0.0 0.00 0.00 0.00 72 1012.1
20260507082604 45 282 0.0 0.0 0.00 0.00 0.00 72 1012.0
20260507082105 45 282 0.0 0.0 0.00 0.00 0.00 72 1012.0
20260507081104 45 281 0.0 0.0 0.00 0.00 0.00 71 1012.0
20260507080605 46 281 0.0 0.0 0.00 0.00 0.00 71 1012.0
20260507080105 46 281 0.0 0.0 0.00 0.00 0.00 70 1012.0
20260507075604 46 280 0.0 0.0 0.00 0.00 0.00 70 1012.0
20260507075104 46 280 0.0 0.0 0.00 0.00 0.00 69 1012.0
20260507074604 46 280 0.0 0.0 0.00 0.00 0.00 69 1011.9
20260507074104 46 280 0.0 0.0 0.00 0.00 0.00 69 1011.9
20260507073604 46 281 0.0 0.0 0.00 0.00 0.00 69 1011.9
20260507073104 46 281 0.0 0.0 0.00 0.00 0.00 68 1011.9
20260507072604 46 281 0.0 0.0 0.00 0.00 0.00 68 1011.9
20260507072104 46 280 0.0 0.0 0.00 0.00 0.00 68 1011.8
20260507071605 46 279 0.0 0.0 0.00 0.00 0.00 68 1011.8
20260507071104 46 279 0.0 0.0 0.00 0.00 0.00 67 1011.9
20260507070605 47 279 0.0 0.0 0.00 0.00 0.00 67 1011.8
20260507070104 47 279 0.0 0.0 0.00 0.00 0.00 67 1011.9
20260507064604 47 279 0.0 0.0 0.00 0.00 0.00 66 1012.0
20260507064104 47 279 0.0 0.0 0.00 0.00 0.00 66 1012.0
20260507063604 47 279 0.0 0.0 0.00 0.00 0.00 65 1012.0
20260507063104 47 277 0.0 0.0 0.00 0.00 0.00 65 1012.0
20260507062604 48 277 0.0 0.0 0.00 0.00 0.00 65 1012.0
20260507061105 48 280 0.0 0.0 0.00 0.00 0.00 65 1012.1
20260507060104 48 281 0.0 0.0 0.00 0.00 0.00 65 1012.1
20260507055604 48 283 0.0 0.0 0.00 0.00 0.00 64 1012.1
20260507055104 49 282 0.0 0.0 0.00 0.00 0.00 64 1012.1
20260507054605 49 283 0.0 0.0 0.00 0.00 0.00 64 1012.1
20260507054105 49 283 0.0 0.0 0.00 0.00 0.00 64 1012.1
20260507053604 49 283 0.0 0.0 0.00 0.00 0.00 64 1012.1
20260507053104 49 284 0.0 0.0 0.00 0.00 0.00 64 1012.1
20260507052605 49 283 0.0 0.0 0.00 0.00 0.00 64 1012.1
20260507052104 49 282 0.0 0.0 0.00 0.00 0.00 63 1012.1
20260507051605 49 281 0.0 0.0 0.00 0.00 0.00 63 1012.2
20260507051107 49 281 0.0 0.0 0.00 0.00 0.00 63 1012.2
20260507050605 49 280 0.0 0.0 0.00 0.00 0.00 63 1012.2
20260507050105 49 280 0.0 0.0 0.00 0.00 0.00 62 1012.2
20260507045605 49 279 0.0 0.0 0.00 0.00 0.00 61 1012.2
20260507045105 49 277 0.0 0.0 0.00 0.00 0.00 61 1012.2
20260507044605 49 276 0.0 0.0 0.00 0.00 0.00 61 1012.3
20260507044105 49 274 0.0 0.0 0.00 0.00 0.00 61 1012.3
20260507043604 49 273 0.0 0.0 0.00 0.00 0.00 61 1012.4
20260507043105 50 272 0.0 0.0 0.00 0.00 0.00 61 1012.4
20260507042105 50 269 0.0 0.0 0.00 0.00 0.00 62 1012.4
20260507041604 50 267 0.0 0.0 0.00 0.00 0.00 62 1012.5
20260507041105 50 279 0.0 0.0 0.00 0.00 0.00 62 1012.6
20260507040604 50 283 0.0 0.0 0.00 0.00 0.00 62 1012.6
20260507040104 50 284 0.0 0.0 0.00 0.00 0.00 62 1012.6
20260507035104 50 283 0.0 0.0 0.00 0.00 0.00 62 1012.6
20260507034604 50 283 0.0 0.0 0.00 0.00 0.00 62 1012.6
20260507034104 50 283 0.0 0.0 0.00 0.00 0.00 62 1012.6
20260507033604 50 283 0.0 0.0 0.00 0.00 0.00 61 1012.6
20260507033105 50 283 0.0 0.0 0.00 0.00 0.00 61 1012.6
20260507032604 50 283 0.0 0.0 0.00 0.00 0.00 61 1012.6
20260507032105 50 283 0.0 0.0 0.00 0.01 0.00 61 1012.6
20260507031604 50 283 0.0 0.0 0.00 0.01 0.00 61 1012.7
20260507031104 50 283 0.0 0.0 0.00 0.01 0.00 62 1012.7
20260507030604 50 283 0.0 0.0 0.00 0.01 0.00 61 1012.8
20260507030105 51 283 0.0 0.0 0.00 0.01 0.00 61 1012.8
20260507025604 51 283 0.0 0.0 0.00 0.01 0.00 60 1012.9
20260507025105 51 283 0.0 0.0 0.00 0.01 0.00 60 1012.9
20260507024105 51 283 0.0 0.0 0.00 0.01 0.00 59 1012.8
20260507023604 51 283 0.0 0.0 0.00 0.01 0.00 58 1012.7
20260507023104 51 283 0.0 0.0 0.00 0.01 0.00 58 1012.7
20260507022605 51 284 0.0 0.0 0.00 0.02 0.00 58 1012.7
20260507022104 51 284 0.0 0.0 0.00 0.02 0.00 58 1012.7
20260507021605 51 281 0.0 0.0 0.00 0.02 0.00 57 1012.7
20260507021105 51 281 0.0 0.0 0.00 0.02 0.00 56 1012.6
20260507020104 52 283 0.0 0.0 0.00 0.02 0.00 56 1012.6
20260507015604 52 285 0.0 0.0 0.00 0.02 0.00 56 1012.5
20260507014604 52 286 0.0 0.0 0.00 0.03 0.00 54 1012.4
20260507014104 52 286 0.0 0.0 0.00 0.03 0.00 54 1012.3
20260507013605 52 286 0.0 0.0 0.00 0.03 0.00 54 1012.3
20260507013105 53 287 0.0 0.0 0.00 0.03 0.00 53 1012.5
20260507012604 53 288 0.0 0.0 0.00 0.03 0.00 53 1012.4
20260507012104 53 288 0.0 0.0 0.00 0.03 0.00 53 1012.2
20260507011604 53 288 0.0 0.0 0.00 0.03 0.00 52 1012.2
20260507011105 53 288 0.0 0.0 0.00 0.03 0.00 52 1012.1
20260507010605 53 288 0.0 0.0 0.00 0.03 0.00 51 1012.1
20260507010104 54 288 0.0 0.0 0.00 0.03 0.00 50 1012.1
20260507005604 54 288 0.0 0.0 0.00 0.03 0.00 49 1012.1
20260507005104 54 271 0.0 0.0 0.00 0.03 0.00 49 1012.1
20260507004105 54 286 0.0 0.0 0.00 0.03 0.00 48 1012.1
20260507003104 55 288 0.0 0.0 0.00 0.03 0.00 47 1012.1
20260507002604 55 288 0.0 0.0 0.00 0.03 0.00 46 1012.1
20260507002104 55 289 0.0 0.0 0.00 0.03 0.00 46 1012.1
20260507001604 55 289 0.0 0.0 0.00 0.03 0.00 45 1012.1
20260507001104 55 289 0.0 0.0 0.00 0.03 0.00 45 1012.1
20260507000605 55 289 0.0 0.0 0.00 0.03 0.00 45 1012.1
20260507000104 55 289 0.0 0.0 0.00 0.03 0.00 45 1012.0
20260506235604 55 289 0.0 0.0 0.00 0.03 0.00 44 1012.0
20260506234605 55 290 0.0 0.0 0.00 0.03 0.00 43 1011.9
20260506233604 56 350 0.0 0.0 0.00 0.03 0.00 43 1011.9
20260506233106 56 351 0.0 0.0 0.00 0.03 0.00 42 1011.8
20260506232604 56 327 0.0 0.0 0.00 0.03 0.00 43 1011.8
20260506232105 56 351 0.0 0.0 0.00 0.03 0.00 43 1011.8
20260506231604 56 227 0.0 0.0 0.00 0.03 0.00 43 1011.6
20260506230604 56 347 0.0 0.0 0.00 0.03 0.00 43 1011.6
20260506230104 56 310 0.0 0.0 0.00 0.03 0.00 43 1011.6
20260506225604 57 298 0.0 0.0 0.00 0.03 0.00 42 1011.7
20260506225105 57 324 0.0 0.0 0.00 0.03 0.00 41 1011.7
20260506224604 57 288 0.0 0.0 0.00 0.03 0.00 42 1011.7
20260506224104 57 333 0.0 0.0 0.00 0.03 0.00 40 1011.8
20260506223604 57 341 0.0 0.0 0.00 0.03 0.00 41 1011.7
20260506223104 58 289 0.0 0.0 0.00 0.03 0.00 42 1011.7
20260506222605 58 271 0.0 0.0 0.00 0.03 0.00 40 1011.7
20260506221604 58 9 0.0 0.0 0.00 0.03 0.00 40 1011.8
20260506221104 58 307 0.0 0.0 0.00 0.03 0.00 41 1011.8
20260506220605 58 253 0.0 0.0 0.00 0.03 0.00 41 1011.9
20260506220105 57 247 0.0 0.0 0.00 0.03 0.00 41 1011.9
20260506215104 57 309 0.0 0.0 0.00 0.03 0.00 41 1011.9
20260506214604 57 241 0.0 0.0 0.00 0.03 0.00 42 1012.0
20260506213604 57 284 0.0 0.0 0.00 0.03 0.00 42 1011.7
20260506213105 57 345 0.0 0.0 0.00 0.03 0.00 42 1011.8
20260506212605 57 312 0.0 0.0 0.00 0.03 0.00 43 1011.8
20260506212104 57 310 0.0 0.0 0.00 0.03 0.00 42 1011.7
20260506211105 57 302 0.0 0.0 0.00 0.03 0.00 41 1011.9
20260506210604 57 254 0.0 0.0 0.00 0.03 0.00 40 1011.7
20260506210104 57 344 0.0 0.0 0.00 0.03 0.00 41 1011.6
20260506205104 57 350 0.0 0.0 0.00 0.03 0.00 44 1011.6
20260506204605 57 320 0.0 0.0 0.00 0.03 0.00 43 1011.6
20260506203604 57 280 0.0 0.0 0.00 0.03 0.00 42 1011.6
20260506203104 57 232 0.0 0.0 0.00 0.03 0.00 42 1011.6
20260506202604 57 274 0.0 0.0 0.00 0.03 0.00 43 1011.6
20260506202104 57 321 0.0 0.0 0.00 0.03 0.00 43 1011.6
20260506201604 57 12 0.0 0.0 0.00 0.03 0.00 43 1011.7
20260506200104 57 258 0.0 0.0 0.00 0.03 0.00 42 1011.7
20260506195604 57 306 0.0 0.0 0.00 0.03 0.00 42 1011.7
20260506195104 57 308 0.0 0.0 0.00 0.03 0.00 44 1011.6